Regional Weather Roundup
Issued by NWS

Home | Current Version | Previous Version | Graphics & Text | Print | Product List | Glossary On
Versions: 1 2 3 4 5 6 7 8 9 10 11 12 13 14 15 16 17 18 19 20 21 22 23 24 25 26 27 28 29 30 31 32 33 34 35 36 37 38 39 40 41 42 43 44 45 46 47 48 49 50
769
ASUS43 KFSD 231902
RWRSD

WEATHER ROUNDUP FOR SOUTH DAKOTA
NATIONAL WEATHER SERVICE SIOUX FALLS SD
100 PM CST THU NOV 23 2017

NOTE: "FAIR" INDICATES FEW OR NO CLOUDS BELOW 12,000 FEET WITH NO
SIGNIFICANT WEATHER AND/OR OBSTRUCTIONS TO VISIBILITY.


SDZ001>005-009-010-012>017-232000-
NORTHWEST AND NORTH CENTRAL SOUTH DAKOTA

CITY           SKY/WX    TMP DP  RH WIND       PRES   REMARKS
FAITH            N/A     71  38  29 SW15      29.76F
MOBRIDGE       SUNNY     58  42  55 SE7       29.71F
$$

SDZ012>016-024>037-041>051-057-063-072>074-232000-
SOUTHWEST AND SOUTH CENTRAL SOUTH DAKOTA

CITY           SKY/WX    TMP DP  RH WIND       PRES   REMARKS
RAPID CTY ARPT SUNNY     73  37  27 SE9       29.84F
PIERRE         MOSUNNY   64  42  44 SW13      29.77F
CUSTER         SUNNY     60  33  36 SW10      29.97F
ELLSWORTH AFB  SUNNY     74  37  26 S9        29.82F
PHILIP         SUNNY     72  42  34 W14       29.81F
PINE RIDGE     SUNNY     65  39  38 W14       29.91F
SPEARFISH      FAIR      72  34  25 SW13G18   29.85F
WINNER         FAIR      76  43  30 SW14G22   29.82F
$$

SDZ004>011-016>023-039-040-232000-
NORTHEAST SOUTH DAKOTA

CITY           SKY/WX    TMP DP  RH WIND       PRES   REMARKS
ABERDEEN       CLOUDY    52  36  54 S16       29.74F
WATERTOWN      CLOUDY    50  35  56 S9        29.78F
BROOKINGS      CLOUDY    52  34  50 SW12      29.82F
SISSETON         N/A     53  37  54 S10       29.72F
$$

SDZ017-020-022-023-036>040-048>070-232000-
SOUTHEAST SOUTH DAKOTA

CITY           SKY/WX    TMP DP  RH WIND       PRES   REMARKS
SIOUX FALLS    PTSUNNY   53  34  48 S8        29.85F
HURON          CLOUDY    53  35  50 S12       29.79F
CHAMBERLAIN    SUNNY     67  45  43 S9        29.81F
MITCHELL       CLOUDY    56  38  50 S9        29.82F
YANKTON        SUNNY     60  39  45 E5        29.87F
$$

ABBREVIATIONS USED IN REMARKS
   TC - TEMPERATURE IN CELSIUS
  WCI - WIND CHILL INDEX
   HX - HEAT INDEX
  VSB - VISIBILITY





USA.gov is the U.S. government's official web portal to all federal, state and local government web resources and services.